GSAT0214 (GALILEO 18) (41862 NORAD) Tracking and Keplerian Element Data

This shows tracking and keplerian element data for the satellite.

Feedback or suggestion? Click here.




ElementValue
Catalog41862
NameGSAT0214 (GALILEO 18)
Epoch Orbit1240
Epoch Day319.09038315
Epoch Year2018
RAAN177.9754
Inclination54.5834
Eccentricity0.0001005
Argument of Perigee291.7919
Mean Anonmoly68.286
Mean Motion1.70473341
Decay Rate4.9E-07
L11 41862U 16069D 18319.09038315 .00000049 00000-0 00000-0 0 9997
L22 41862 54.5834 177.9754 0001005 291.7919 68.2860 1.70473341 12403

Live tracking and technical data element details for GSAT0214 (GALILEO 18) (NORAD 41862). GSAT0214 (GALILEO 18) can be tracked NOW for your location showing map with azimuth and elevation plus other details from your city location.

Track the satellite on the map from your city or location and see movement details for azimuth, elevation, latitude, longitude, range, height, and movement on the map or in text.







IsCatalogInMostPopularTable: catalog: 41862, numindb: 116
Update: records affected: 1



GetName: 41862 GSAT0214 (GALILEO 18)

Hit Count: updated at: Fri, 16 Nov 2018 11:41:20 GMT